434  
NZUS93 KARX 181710  
HRRWXR  
 
CURRENT HOURLY OBSERVATIONS ACROSS  
MUCH OF THE UPPER MISSISSIPPI VALLEY  
NATIONAL WEATHER SERVICE LA CROSSE WI  
1200 PM CDT TUE SEP 18 2018  
 
   
..SOUTHEAST MINNESOTA
 
 
 
CITY SKY/WX TMP DP RH WIND PRES REMARKS  
ROCHESTER FAIR 63 62 97 S13G18 29.99F  
ROCHESTER/MAYO FAIR 62 62 100 S10G17 29.98S  
WINONA FAIR 64 61 88 SE5 29.95F  
AUSTIN RAIN 63 61 94 S9 30.04S  
ALBERT LEA LGT RAIN 63 63 100 SE16 30.00F  
DODGE CENTER FAIR 63 61 94 S18G25 29.97F  
PRESTON LGT RAIN 61 60 94 S9 30.01F  
OWATONNA FAIR 64 63 94 S14G20 29.95F  
FARIBAULT CLOUDY 63 63 100 CALM 29.99R  

 
   
..ELSEWHERE IN MINNESOTA
 
 
 
CITY SKY/WX TMP DP RH WIND PRES REMARKS  
MINNEAPOLIS CLOUDY 61 59 93 NE9 29.98F  
INTNL FALLS CLOUDY 55 48 77 NE5 30.08S  
DULUTH CLOUDY 56 51 84 E14 30.05S  
RED WING FAIR 66 64 94 CALM 29.95R  
REDWOOD FALLS PTSUNNY 64 60 87 E9 29.98R  
MANKATO PTSUNNY 65 63 93 VRB5 29.96S  
WORTHINGTON CLOUDY 65 62 90 NE6 29.99R  
FAIRMONT CLOUDY 65 62 90 SE16G26 29.96S  

 
   
..SOUTHWEST WISCONSIN
 
 
 
CITY SKY/WX TMP DP RH WIND PRES REMARKS  
LA CROSSE LGT RAIN 68 64 87 S13 29.97F  
PRAIRIE DU CHI RAIN 64 63 97 SE3 30.06F  
BOSCOBEL NOT AVBL  
LONE ROCK NOT AVBL  
PLATTEVILLE CLOUDY 64 64 100 N6 30.09F  
FORT MC COY FAIR 61 59 94 CALM 30.02F  
CAMP DOUGLAS CLOUDY 66 66 100 NW6 30.03R  
MAUSTON-NEW LI FAIR 65 64 94 W5 30.02R  
VIROQUA FAIR 63 63 100 SW3 30.04R  
WIS DELLS LGT RAIN 63 62 96 S16G28 29.95F  

 
   
..ELSEWHERE IN WISCONSIN
 
 
 
CITY SKY/WX TMP DP RH WIND PRES REMARKS  
MILWAUKEE CLOUDY 68 62 81 NW7 30.03R  
MADISON LGT RAIN 65 63 93 NW6 30.05S  
GREEN BAY CLOUDY 61 55 81 NE7 30.03S  
EAU CLAIRE FAIR 66 62 87 CALM 29.95F  
BLACK RVR FLS FAIR 67 67 100 S5 29.98F  
MEDFORD CLOUDY 60 59 99 SE7 30.00F FOG  
WAUSAU CLOUDY 59 56 89 SE7 30.01R  
WIS RAPIDS FAIR 65 61 87 CALM 30.03S  
MARSHFIELD FAIR 67 63 87 W8 30.01F  
RICE LAKE CLOUDY 60 44 55 N5 30.01F  

 
   
..NORTHEAST IOWA
 
 
 
CITY SKY/WX TMP DP RH WIND PRES REMARKS  
WATERLOO CLOUDY 63 62 97 E15 30.02F  
DUBUQUE RAIN 63 62 97 N7 30.11R FOG  
DECORAH FAIR 63 63 100 SE6G14 30.01F  
MASON CITY RAIN 62 62 100 E6 30.08F FOG  
CHARLES CITY RAIN 64 61 88 E5G12 30.07R  
OELWEIN RAIN 64 63 94 E12G20 30.06F  

 
   
..ELSEWHERE IN IOWA
 
 
 
CITY SKY/WX TMP DP RH WIND PRES REMARKS  
DES MOINES TSTM 65 64 97 E21G37 29.98S  
IOWA CITY LGT RAIN 65 63 93 NE29G40 30.03R  
FORT DODGE TSTM 63 61 93 N7 30.09R  
MARSHALLTOWN NOT AVBL  
CEDAR RAPIDS TSTM 65 63 93 NE21 30.06R FOG  

 
   
..NORTHERN ILLINOIS
 
 
 
CITY SKY/WX TMP DP RH WIND PRES REMARKS  
CHICAGO-OHARE PTSUNNY 74 64 71 N8 29.97S  
CHICAGO-MIDWAY PTSUNNY 81 65 58 NE7 29.96S  
MOLINE CLOUDY 80 67 64 NE12 29.98R  
ROCKFORD CLOUDY 70 65 84 N13 30.03R  
PEORIA FAIR 88 68 51 SW5 29.95F HX 91  

 
 
NOTE: "FAIR" INDICATES FEW OR NO CLOUDS BELOW 12,000 FEET WITH NO  
SIGNIFICANT WEATHER AND/OR OBSTRUCTIONS TO VISIBILITY. WIND  
SPEEDS ARE IN MILES-PER-HOUR.  
 
 
CLICK HERE TO GO TO PREVIOUS BULLETINS.

The Nexlab WI Page
The Nexlab IA Page
The Nexlab MN Page Main Text Page